Weather History for Erie, PA

Change the Weather History Date:

Monday, November 11, 2013

  Actual Average Record
Temperature  
Mean Temperature 38 °F 45 °F  
Max Temperature 46 °F 52 °F 73 °F (1915)
Min Temperature 30 °F 38 °F 24 °F (1933)
Degree Days  
Heating Degree Days 27 20  
Month to date heating degree days 214 202  
Since 1 July heating degree days 658 705  
Cooling Degree Days 0 0  
Month to date cooling degree days 0 0  
Year to date cooling degree days 706 638  
Moisture  
Dew Point 30 °F    
Average Humidity 73    
Maximum Humidity 92    
Minimum Humidity 53    
Precipitation  
Precipitation 0.62 in 0.13 in 1.05 in (1946)
Month to date precipitation 2.60 1.42  
Year to date precipitation 46.66 35.91  
Snow  
Snow 2.30 in 0.20 in - ()
Month to date snowfall 2.3 1.8  
Since 1 July snowfall 2.6 2.0  
Since 1 September snowfall 2.6 2.0  
Snow Depth 0.00 in    
Sea Level Pressure  
Sea Level Pressure 30.12 in    
Wind  
Wind Speed 13 mph (WNW)    
Max Wind Speed 25 mph    
Max Gust Speed 35 mph    
Visibility 6 miles    
Events Fog , Rain , Snow    
T = Trace of Precipitation, MM = Missing Value Source: NWS Daily Summary

Daily Weather History Graph

Daily Weather History Graph

Search for Another Location

Airport:

Trip Planner

Search our weather history database for the weather conditions in past years. The results will help you decide how hot, cold, wet, or windy it might be!

Date:

Astronomy

Nov. 11, 2013 Rise Set
Actual Time 7:06 AM EST 5:02 PM EST
Civil Twilight 6:36 AM EST 5:32 PM EST
Nautical Twilight 6:02 AM EST 6:06 PM EST
Astronomical Twilight 5:29 AM EST 6:39 PM EST
Moon 1:48 PM EST (11/11) 12:43 AM EST (11/11)
Length of Visible Light 10h 56m
Length of Day
9h 56m
Waxing Gibbous, 66% of the Moon is Illuminated
Nov 11
Waxing Gibbous
Nov 17
Full
Nov 25
Last Quarter
Dec 2
New
Dec 9
First Quarter

Hourly Weather History & Observations

Time (EST) Temp. Windchill Dew Point Humidity Pressure Visibility Wind Dir Wind Speed Gust Speed Precip Events Conditions
12:51 AM 43.0 °F 38.2 °F 30.0 °F 60% 30.24 in 10.0 mi WNW 8.1 mph - N/A   Scattered Clouds
1:51 AM 43.0 °F 39.5 °F 30.0 °F 60% 30.22 in 10.0 mi West 5.8 mph - N/A   Scattered Clouds
2:51 AM 44.1 °F 40.8 °F 30.0 °F 58% 30.22 in 10.0 mi West 5.8 mph - N/A   Mostly Cloudy
3:51 AM 39.9 °F 35.8 °F 30.9 °F 70% 30.20 in 10.0 mi South 5.8 mph - N/A   Mostly Cloudy
4:51 AM 39.9 °F 33.4 °F 30.9 °F 70% 30.19 in 10.0 mi South 10.4 mph - N/A   Overcast
5:51 AM 41.0 °F 35.2 °F 32.0 °F 70% 30.17 in 10.0 mi SSW 9.2 mph - N/A   Overcast
6:51 AM 39.9 °F 32.1 °F 30.9 °F 70% 30.16 in 10.0 mi South 13.8 mph - N/A   Overcast
7:51 AM 41.0 °F 32.8 °F 30.0 °F 65% 30.15 in 10.0 mi SSW 16.1 mph - N/A   Overcast
8:51 AM 41.0 °F 32.8 °F 30.0 °F 65% 30.14 in 10.0 mi SSW 16.1 mph - N/A   Overcast
9:51 AM 42.1 °F 32.6 °F 28.9 °F 60% 30.11 in 10.0 mi SSW 23.0 mph 28.8 mph N/A   Overcast
10:51 AM 44.1 °F 35.2 °F 28.9 °F 55% 30.06 in 10.0 mi SSW 23.0 mph 34.5 mph N/A   Overcast
11:51 AM 44.1 °F 37.1 °F 28.0 °F 53% 30.06 in 10.0 mi SW 15.0 mph 26.5 mph N/A   Overcast
12:51 PM 45.0 °F 38.2 °F 28.0 °F 52% 30.04 in 10.0 mi SW 15.0 mph 26.5 mph N/A   Overcast
1:51 PM 45.0 °F 38.2 °F 28.9 °F 53% 30.01 in 10.0 mi SSW 15.0 mph 19.6 mph N/A   Overcast
2:51 PM 45.0 °F 37.6 °F 30.9 °F 58% 30.01 in 10.0 mi WSW 17.3 mph 27.6 mph 0.00 in Rain Light Rain
3:32 PM 42.8 °F 37.5 °F 33.8 °F 70% 30.00 in 8.0 mi SW 9.2 mph 19.6 mph 0.01 in Rain Light Rain
3:51 PM 42.1 °F 34.9 °F 35.1 °F 76% 30.02 in 6.0 mi WSW 13.8 mph - 0.02 in Rain Light Rain
4:38 PM 42.8 °F 36.6 °F 37.4 °F 81% 30.00 in 3.0 mi SW 11.5 mph - 0.08 in Rain Rain
4:51 PM 42.1 °F 37.7 °F 37.9 °F 85% 30.02 in 3.0 mi SW 6.9 mph 17.3 mph 0.11 in Rain Light Rain
5:42 PM 42.8 °F 35.8 °F 37.4 °F 81% 30.02 in 6.0 mi West 13.8 mph 24.2 mph 0.10 in Rain Rain
5:51 PM 41.0 °F 34.7 °F 37.0 °F 86% 30.04 in 6.0 mi West 10.4 mph 19.6 mph 0.11 in Rain Rain
6:16 PM 39.2 °F 31.6 °F 35.6 °F 87% 30.04 in 8.0 mi NNW 12.7 mph 25.3 mph 0.05 in Rain Light Rain
6:37 PM 37.4 °F 29.8 °F 33.8 °F 87% 30.06 in 8.0 mi North 11.5 mph 23.0 mph 0.07 in Rain Light Rain
6:51 PM 36.0 °F 27.5 °F 33.1 °F 89% 30.09 in 8.0 mi North 12.7 mph 23.0 mph 0.09 in Rain Light Rain
7:23 PM 33.8 °F 25.3 °F 30.2 °F 87% 30.08 in 2.0 mi NNW 11.5 mph 21.9 mph 0.02 in Snow Light Snow
7:40 PM 33.8 °F 25.3 °F 30.2 °F 87% 30.09 in 1.5 mi NNW 11.5 mph 19.6 mph 0.05 in Snow Light Snow
7:51 PM 33.1 °F 23.4 °F 30.9 °F 92% 30.13 in 1.0 mi NNW 13.8 mph 21.9 mph 0.07 in Snow Light Snow
8:51 PM 32.0 °F 22.1 °F 30.0 °F 92% 30.15 in 0.8 mi North 13.8 mph 20.7 mph 0.09 in Snow Light Snow
9:39 PM 30.2 °F 19.3 °F 28.4 °F 93% 30.15 in 0.5 mi North 15.0 mph 23.0 mph 0.08 in Fog , Snow Snow
9:41 PM 30.2 °F 20.2 °F 28.4 °F 93% 30.15 in 0.8 mi North 12.7 mph 23.0 mph 0.08 in Snow Light Snow
9:51 PM 30.9 °F 20.7 °F 28.0 °F 89% 30.17 in 1.2 mi North 13.8 mph 21.9 mph 0.09 in Snow Light Snow
10:02 PM 30.2 °F 20.2 °F 26.6 °F 86% 30.16 in 1.2 mi North 12.7 mph 19.6 mph 0.00 in Snow Light Snow
10:09 PM 30.2 °F 21.9 °F 26.6 °F 86% 30.15 in 1.8 mi North 9.2 mph - 0.00 in Snow Light Snow
10:16 PM 30.2 °F 21.3 °F 26.6 °F 86% 30.16 in 2.0 mi North 10.4 mph - 0.00 in Snow Light Snow
10:43 PM 30.2 °F 21.3 °F 26.6 °F 86% 30.17 in 1.5 mi North 10.4 mph 20.7 mph 0.01 in Snow Light Snow
10:51 PM 30.9 °F 21.2 °F 26.1 °F 82% 30.19 in 1.5 mi North 12.7 mph 18.4 mph 0.01 in Snow Light Snow
11:04 PM 30.2 °F 20.8 °F 26.6 °F 86% 30.17 in 1.2 mi NNW 11.5 mph - 0.00 in Snow Light Snow
11:19 PM 30.2 °F 22.6 °F 24.8 °F 80% 30.17 in 2.5 mi North 8.1 mph - 0.00 in Snow Light Snow
11:21 PM 30.2 °F 24.3 °F 24.8 °F 80% 30.17 in 3.0 mi North 5.8 mph - 0.00 in Snow Light Snow
11:24 PM 30.2 °F 20.8 °F 26.6 °F 86% 30.17 in 1.8 mi North 11.5 mph 17.3 mph 0.00 in Snow Light Snow
11:31 PM 30.2 °F 23.4 °F 26.6 °F 86% 30.18 in 0.8 mi North 6.9 mph 17.3 mph 0.01 in Snow Light Snow
11:45 PM 30.2 °F 20.8 °F 26.6 °F 86% 30.18 in 1.0 mi North 11.5 mph 16.1 mph 0.03 in Snow Light Snow
11:51 PM 30.0 °F 24.1 °F 25.0 °F 82% 30.20 in 2.0 mi North 5.8 mph 16.1 mph 0.03 in Snow Light Snow
11:58 PM 30.2 °F 25.4 °F 24.8 °F 80% 30.18 in 8.0 mi North 4.6 mph - 0.00 in Snow Light Snow